Weather observations for the past three days for
Elkins, Elkins-Randolph County-Jennings Randolph Field
Imperial (Metric)
Date Time (edt) Wind (mph) Vis. (mi.) Weather Sky Cond. Temperature (ºF) Relative Humidity Wind Chill (°F) Heat Index (°F) Pressure Precipitation (in)
Air Dwpt 6 hour altimeter (in) sea level (mb) 1 hr 3 hr 6 hr
Max. Min.
13 14:51 Calm 10.00 Fair CLR 82.9 57.9 43% 83 30.03 1016.0
13 13:51 W 7 10.00 Fair CLR 82.9 55.9 82.9 55 40% 82 30.05 1016.7
13 12:51 W 8 10.00 Partly Cloudy SCT060 79 55.9 45% 80 30.05 1017.0
13 11:51 Calm 10.00 Partly Cloudy SCT048 79 59 50% 80 30.07 1017.4
13 10:51 Calm 10.00 Fair CLR 75.9 61 60% 78 30.08 1017.9
13 09:51 Calm 10.00 Fair CLR 68 59 73% 30.09 1018.4
13 08:51 Calm 10.00 Fair CLR 61 55.9 84% 30.1 1019.0
13 07:51 Calm 10.00 Fair CLR 54 54 54 48 100% 30.1 1018.9
13 06:51 Calm 1.75 Fog/Mist SCT002 48.9 48.9 100% 30.09 1018.7
13 05:51 Calm 8.00 Fair CLR 48.9 48 97% 30.09 1018.6
13 04:51 Calm 1.00 Fog/Mist VV001 48.9 48.9 100% 30.08 1018.2
13 03:51 Calm 6.00 Fog/Mist BKN001 50 50 100% 30.07 1017.8
13 02:51 Calm 7.00 Fair CLR 51.1 51.1 100% 30.07 1017.8
13 01:51 Calm 10.00 Fair CLR 52 52 73.9 52 100% 30.07 1018.0
13 00:51 Calm 10.00 Fair CLR 54 53.1 97% 30.09 1018.5
12 23:51 Calm 10.00 Fair CLR 55 54 96% 30.09 1018.6
12 22:51 Calm 10.00 Fair CLR 57 54 90% 30.09 1018.8
12 21:51 Calm 10.00 Fair CLR 60.1 54 80% 30.08 1018.6
12 20:51 Calm 10.00 Fair CLR 64.9 55 70% 30.07 1018.3
12 19:51 N 5 10.00 Fair CLR 73.9 52 79 73 46% 30.05 1017.4
12 18:51 N 6 10.00 Fair CLR 77 51.1 40% 78 30.04 1017.0
12 17:51 W 6 10.00 Fair CLR 78.1 51.1 39% 79 30.04 1017.0
12 16:51 Vrbl 6 10.00 Fair CLR 78.1 50 37% 79 30.05 1017.2
12 15:51 Calm 10.00 Fair CLR 79 51.1 38% 79 30.05 1017.3
12 14:51 Calm 10.00 Fair CLR 75.9 52 43% 78 30.07 1017.8
12 13:51 E 5 10.00 A Few Clouds FEW050 73 53.1 73.9 48.9 50% 30.08 1018.4
12 12:51 Calm 10.00 Partly Cloudy SCT049 72 53.1 52% 30.1 1018.9
12 11:51 N 7 10.00 A Few Clouds FEW050 71.1 52 51% 30.12 1019.6
12 10:51 Calm 10.00 Fair CLR 66 53.1 63% 30.12 1019.9
12 09:51 Calm 10.00 Fair CLR 60.1 54 80% 30.13 1020.3
12 08:51 Calm 10.00 Mostly Cloudy BKN004 52 51.1 97% 30.13 1020.4
12 07:51 Calm 3.00 Fog/Mist OVC002 48.9 48.9 50 46 100% 30.13 1020.5
12 06:51 Calm 0.25 Fog VV002 46.9 46.9 100% 30.12 1020.3
12 05:51 Calm 0.25 Fog VV002 46.9 46.9 100% 30.11 1019.8
12 04:51 Calm 0.50 Fog VV002 46.9 46.9 100% 30.09 1019.1
12 03:51 Calm 0.25 Fog VV001 48 48 100% 30.09 1018.9
12 02:51 Calm 0.25 Fog VV001 48 48 100% 30.09 1019.0
12 01:51 Calm 4.00 Fog/Mist CLR 48.9 48 64 48.9 97% 30.08 1018.6
12 00:51 Calm 6.00 Fog/Mist CLR 51.1 50 96% 30.08 1018.8
11 23:51 Calm 7.00 Fair CLR 52 51.1 97% 30.08 1019.0
11 22:51 Calm 10.00 Fair CLR 54 52 93% 30.08 1018.5
11 21:51 Calm 10.00 Overcast OVC050 59 53.1 81% 30.06 1018.0
11 20:51 Calm 10.00 Overcast OVC055 61 55 81% 30.05 1017.5
11 19:51 Calm 10.00 Overcast BKN043 OVC050 64 54 70 64 70% 30.04 1017.0
11 18:51 Calm 10.00 Mostly Cloudy BKN055 64.9 51.1 61% 30.02 1016.4
11 17:51 NW 7 10.00 Overcast FEW043 OVC055 66 50 56% 30.02 1016.3
11 16:51 W 5 10.00 Mostly Cloudy BKN050 66 48.9 54% 30.01 1016.1
11 15:51 W 5 10.00 Mostly Cloudy FEW039 BKN047 66 48.9 54% 30.01 1016.2
11 14:51 Vrbl 3 10.00 Mostly Cloudy BKN041 66 50 56% 30.01 1016.2
11 13:51 NW 9 10.00 Mostly Cloudy FEW032 BKN042 64.9 52 66 55 63% 30.02 1016.5
11 12:51 NW 9 10.00 Overcast SCT030 OVC045 63 51.1 65% 30.03 1017.0
11 11:51 NW 5 10.00 Overcast FEW024 OVC036 60.1 51.1 72% 30.04 1017.3
11 10:51 Vrbl 6 10.00 Mostly Cloudy SCT024 BKN032 BKN043 63 52 68% 30.01 1016.2
11 09:51 NE 3 10.00 Overcast FEW014 OVC034 57.9 52 81% 30.02 1016.7
11 08:51 N 5 9.00 Overcast BKN009 OVC015 55 52 90% 30.01 1016.3
11 07:51 Calm 9.00 Overcast OVC013 55 52 57 54 90% 30 1015.9
11 06:51 N 6 10.00 Overcast BKN010 OVC015 54 53.1 97% 29.99 1015.4
11 05:51 Calm 10.00 Overcast SCT010 BKN027 OVC050 55 53.1 93% 29.97 1014.9
11 04:51 N 5 10.00 Overcast BKN015 OVC021 55 53.1 93% 29.95 1014.1
11 03:51 N 3 10.00 Overcast BKN016 OVC024 55 54 96% 29.94 1013.5
11 02:51 NW 3 10.00 Overcast BKN016 OVC036 55.9 54 93% 29.93 1013.0
11 01:51 Calm 10.00 Overcast BKN030 OVC037 57 55 61 55.9 93% 29.94 1013.2
11 00:51 W 3 10.00 Overcast OVC037 57 55 93% 29.94 1013.2
10 23:51 Calm 10.00 Overcast BKN023 OVC027 57 55.9 96% 29.94 1013.1
10 22:51 Calm 10.00 Overcast FEW024 BKN043 OVC055 57 55.9 96% 29.92 1012.8
10 21:51 N 6 10.00 Overcast BKN015 OVC024 57.9 55.9 93% 29.9 1012.2
10 20:51 Vrbl 3 9.00 Light Rain FEW018 BKN027 OVC041 59 55.9 90% 29.87 1011.4
10 19:51 N 10 10.00 Overcast SCT023 OVC055 61 55 73.9 61 81% 29.86 1011.1 0.05
10 18:51 NW 5 10.00 Overcast FEW033 BKN050 OVC100 63 55 76% 29.84 1010.5
10 17:51 Calm 2.50 Light Rain Fog/Mist FEW030 SCT041 OVC060 61 59 93% 29.83 1010.3 0.05
10 16:51 NW 9 10.00 Mostly Cloudy FEW055 SCT085 BKN110 66.9 54 63% 29.82 1009.7
10 15:51 W 12 10.00 Light Rain BKN080 OVC100 66.9 52 59% 29.81 1009.4
Date Time (edt) Wind (mph) Vis. (mi.) Weather Sky Cond. Air Dwpt Max. Min. Relative Humidity Wind Chill (°F) Heat Index (°F) altimeter (in) sea level (mb) 1 hr 3 hr 6 hr
6 hour
Temperature (ºF) Pressure Precipitation (in)